Change the Weather History Date:

Wednesday, February 5, 2014

  Actual Average Record
Temperature  
Mean Temperature 0 °F -  
Max Temperature 5 °F 23 °F 55 °F (1964)
Min Temperature -7 °F 6 °F -25 °F (1979)
Degree Days  
Heating Degree Days 65    
Moisture  
Dew Point -8 °F    
Average Humidity 69    
Maximum Humidity 78    
Minimum Humidity 61    
Precipitation  
Precipitation 0.00 in - - ()
Sea Level Pressure  
Sea Level Pressure 30.46 in    
Wind  
Wind Speed 19 mph (NNW)    
Max Wind Speed 26 mph    
Max Gust Speed 34 mph    
Visibility 6 miles    
Events Rain , Snow    
Averages and records for this station are not official NWS values.
T = Trace of Precipitation, MM = Missing Value Source: NWS Daily Summary

Daily Weather History Graph

Daily Weather History Graph

Search for Another Location

Airport or City:

Trip Planner

Search our weather history database for the weather conditions in past years. The results will help you decide how hot, cold, wet, or windy it might be!

Date:

Astronomy

Feb. 05, 2014 Rise Set
Actual Time 7:24 AM CST 5:33 PM CST
Civil Twilight 6:55 AM CST 6:03 PM CST
Nautical Twilight 6:21 AM CST 6:36 PM CST
Astronomical Twilight 5:48 AM CST 7:09 PM CST
Moon 10:30 AM CST (2/5) No Moon Set
Length of Visible Light 11h 08m
Length of Day
10h 08m
Waxing Crescent, 39% of the Moon is Illuminated
Feb 5
Waxing Crescent
Feb 6
First Quarter
Feb 14
Full
Feb 22
Last Quarter
Mar 1
New

Hourly Weather History & Observations

Time (CST) Temp. Windchill Dew Point Humidity Pressure Visibility Wind Dir Wind Speed Gust Speed Precip Events Conditions
12:15 AM 3.2 °F -17.1 °F -2.2 °F 78% 30.34 in 2.0 mi North 18.4 mph 27.6 mph N/A Rain Light Freezing Rain
12:35 AM 3.2 °F -18.1 °F -4.0 °F 72% 30.34 in 2.0 mi North 20.7 mph 33.4 mph N/A Rain Light Freezing Rain
12:55 AM 3.2 °F -18.1 °F -2.2 °F 78% 30.33 in 1.8 mi North 20.7 mph 31.1 mph N/A Rain Light Freezing Rain
1:15 AM 3.2 °F -17.6 °F -2.2 °F 78% 30.34 in 1.8 mi North 19.6 mph 33.4 mph N/A Rain Light Freezing Rain
1:35 AM 3.2 °F -19.9 °F -4.0 °F 72% 30.34 in 1.5 mi North 25.3 mph - N/A Rain Light Freezing Rain
1:55 AM 3.2 °F -19.0 °F -4.0 °F 72% 30.34 in 1.8 mi North 23.0 mph 31.1 mph N/A Rain Light Freezing Rain
2:15 AM 3.2 °F -19.9 °F -4.0 °F 72% 30.34 in 2.0 mi North 25.3 mph 32.2 mph N/A Rain Light Freezing Rain
2:35 AM 3.2 °F -20.3 °F -4.0 °F 72% 30.34 in 2.0 mi North 26.5 mph - N/A Rain Light Freezing Rain
2:55 AM 1.4 °F -19.9 °F -4.0 °F 78% 30.35 in 1.8 mi North 19.6 mph 33.4 mph N/A Rain Light Freezing Rain
3:15 AM 1.4 °F -21.0 °F -5.8 °F 72% 30.35 in 2.5 mi North 21.9 mph 34.5 mph N/A Rain Light Freezing Rain
3:35 AM 1.4 °F -21.9 °F -4.0 °F 78% 30.35 in 3.0 mi North 24.2 mph 32.2 mph N/A Rain Light Freezing Rain
3:55 AM 1.4 °F -21.9 °F -5.8 °F 72% 30.36 in 2.5 mi North 24.2 mph 32.2 mph N/A Rain Light Freezing Rain
4:15 AM 1.4 °F -19.4 °F -5.8 °F 72% 30.37 in 3.0 mi North 18.4 mph 28.8 mph N/A Rain Light Freezing Rain
4:35 AM 1.4 °F -19.9 °F -5.8 °F 72% 30.38 in 2.5 mi North 19.6 mph 32.2 mph N/A Rain Light Freezing Rain
4:55 AM 1.4 °F -21.0 °F -5.8 °F 72% 30.38 in 1.5 mi North 21.9 mph 29.9 mph N/A Rain Light Freezing Rain
5:15 AM -0.4 °F -23.3 °F -5.8 °F 78% 30.39 in 2.0 mi NNW 21.9 mph 28.8 mph N/A Rain Light Freezing Rain
5:35 AM -0.4 °F -22.8 °F -7.6 °F 72% 30.40 in 3.0 mi North 20.7 mph 33.4 mph N/A Rain Light Freezing Rain
5:55 AM -0.4 °F -22.3 °F -7.6 °F 72% 30.41 in 4.0 mi North 19.6 mph 26.5 mph N/A   Haze
6:15 AM -0.4 °F -22.3 °F -7.6 °F 72% 30.41 in 5.0 mi NNW 19.6 mph 29.9 mph N/A   Haze
6:35 AM -0.4 °F -22.3 °F -7.6 °F 72% 30.42 in 5.0 mi North 19.6 mph 29.9 mph N/A   Haze
6:55 AM -0.4 °F -20.5 °F -7.6 °F 72% 30.42 in 4.0 mi North 16.1 mph 29.9 mph N/A   Haze
7:15 AM -0.4 °F -22.3 °F -7.6 °F 72% 30.43 in 2.0 mi NNW 19.6 mph 28.8 mph N/A Rain Light Freezing Rain
7:35 AM -0.4 °F -22.3 °F -7.6 °F 72% 30.44 in 2.0 mi NNW 19.6 mph 26.5 mph N/A Rain Light Freezing Rain
7:55 AM -0.4 °F -22.8 °F -7.6 °F 72% 30.45 in 4.0 mi NNW 20.7 mph 26.5 mph N/A   Haze
8:15 AM -0.4 °F -22.3 °F -7.6 °F 72% 30.46 in 3.0 mi NNW 19.6 mph 27.6 mph N/A Snow Light Snow
8:35 AM -0.4 °F -23.3 °F -7.6 °F 72% 30.47 in 4.0 mi NNW 21.9 mph - N/A   Haze
8:55 AM -0.4 °F -22.8 °F -7.6 °F 72% 30.47 in 4.0 mi NNW 20.7 mph 28.8 mph N/A   Haze
9:10 AM 1.4 °F -18.8 °F -9.4 °F 61% 30.48 in 4.0 mi North 17.3 mph 29.9 mph N/A   Haze
9:35 AM 1.4 °F -19.4 °F -7.6 °F 66% 30.49 in 8.0 mi NNW 18.4 mph 28.8 mph N/A   Scattered Clouds
9:55 AM 1.4 °F -19.9 °F -9.4 °F 61% 30.49 in 7.0 mi NNW 19.6 mph 27.6 mph N/A Snow Light Snow
10:15 AM 1.4 °F -19.4 °F -7.6 °F 66% 30.50 in 8.0 mi NNW 18.4 mph 27.6 mph N/A   Mostly Cloudy
10:35 AM 3.2 °F -17.6 °F -7.6 °F 61% 30.50 in 9.0 mi NNW 19.6 mph 26.5 mph N/A   Overcast
10:55 AM 3.2 °F -15.9 °F -7.6 °F 61% 30.50 in 10.0 mi North 16.1 mph 25.3 mph N/A   Overcast
11:10 AM 3.2 °F -18.1 °F -7.6 °F 61% 30.50 in 9.0 mi NNW 20.7 mph 26.5 mph N/A   Overcast
11:35 AM 3.2 °F -18.1 °F -7.6 °F 61% 30.50 in 8.0 mi NNW 20.7 mph 27.6 mph N/A   Overcast
11:55 AM 3.2 °F -17.6 °F -7.6 °F 61% 30.50 in 10.0 mi NNW 19.6 mph 26.5 mph N/A   Overcast
12:15 PM 3.2 °F -16.5 °F -7.6 °F 61% 30.49 in 10.0 mi NNW 17.3 mph 26.5 mph N/A   Overcast
12:35 PM 3.2 °F -19.0 °F -7.6 °F 61% 30.49 in 10.0 mi NNW 23.0 mph - N/A   Overcast
12:55 PM 5.0 °F -15.7 °F -5.8 °F 61% 30.49 in 7.0 mi NNW 20.7 mph 27.6 mph N/A   Overcast
1:15 PM 5.0 °F -16.2 °F -4.0 °F 66% 30.49 in 4.0 mi NNW 21.9 mph - N/A Snow Light Snow
1:30 PM 5.0 °F -15.7 °F -5.8 °F 61% 30.49 in 7.0 mi NNW 20.7 mph 28.8 mph N/A   Mostly Cloudy
1:55 PM 5.0 °F -15.2 °F -4.0 °F 66% 30.49 in 3.0 mi NNW 19.6 mph 27.6 mph N/A Snow Light Snow
2:15 PM 5.0 °F -14.7 °F -5.8 °F 61% 30.47 in 8.0 mi NNW 18.4 mph 28.8 mph N/A   Mostly Cloudy
2:35 PM 5.0 °F -15.2 °F -5.8 °F 61% 30.48 in 6.0 mi NNW 19.6 mph 26.5 mph N/A   Haze
2:55 PM 5.0 °F -15.7 °F -4.0 °F 66% 30.49 in 3.0 mi NNW 20.7 mph - N/A Snow Light Snow
3:15 PM 5.0 °F -16.2 °F -4.0 °F 66% 30.49 in 7.0 mi NW 21.9 mph - N/A   Mostly Cloudy
3:35 PM 5.0 °F -16.2 °F -5.8 °F 61% 30.50 in 7.0 mi NW 21.9 mph - N/A   Mostly Cloudy
3:55 PM 5.0 °F -15.2 °F -5.8 °F 61% 30.51 in 9.0 mi NNW 19.6 mph - N/A   Scattered Clouds
4:15 PM 3.2 °F -18.6 °F -4.0 °F 72% 30.51 in 9.0 mi NW 21.9 mph - N/A   Mostly Cloudy
4:35 PM 3.2 °F -17.6 °F -5.8 °F 66% 30.51 in 6.0 mi NNW 19.6 mph - N/A   Haze
4:55 PM 3.2 °F -17.6 °F -7.6 °F 61% 30.52 in 10.0 mi NW 19.6 mph - N/A   Mostly Cloudy
5:15 PM 3.2 °F -15.9 °F -5.8 °F 66% 30.52 in 9.0 mi NNW 16.1 mph 23.0 mph N/A   Scattered Clouds
5:35 PM 1.4 °F -16.9 °F -7.6 °F 66% 30.52 in 10.0 mi NW 13.8 mph - N/A   Scattered Clouds
5:55 PM 1.4 °F -16.9 °F -5.8 °F 72% 30.52 in 10.0 mi NW 13.8 mph - N/A   Partly Cloudy
6:15 PM -0.4 °F -16.7 °F -7.6 °F 72% 30.53 in 10.0 mi NW 10.4 mph - N/A   Clear
6:35 PM -0.4 °F -14.7 °F -9.4 °F 66% 30.54 in 10.0 mi NW 8.1 mph - N/A   Scattered Clouds
6:55 PM -2.2 °F -18.9 °F -9.4 °F 71% 30.54 in 10.0 mi NW 10.4 mph - N/A   Partly Cloudy
7:15 PM -2.2 °F -20.7 °F -9.4 °F 71% 30.54 in 10.0 mi NW 12.7 mph - N/A   Clear
7:35 PM -2.2 °F -19.9 °F -11.2 °F 66% 30.54 in 10.0 mi NW 11.5 mph - N/A   Clear
7:55 PM -2.2 °F -18.9 °F -11.2 °F 66% 30.54 in 10.0 mi NW 10.4 mph - N/A   Clear
8:15 PM -2.2 °F -18.0 °F -11.2 °F 66% 30.54 in 10.0 mi WNW 9.2 mph - N/A   Clear
8:35 PM -4.0 °F -21.2 °F -11.2 °F 71% 30.54 in 10.0 mi NW 10.4 mph - N/A   Clear
8:55 PM -4.0 °F -17.8 °F -13.0 °F 65% 30.53 in 10.0 mi WNW 6.9 mph - N/A   Clear
9:15 PM -5.8 °F -21.2 °F -13.0 °F 71% 30.53 in 10.0 mi WNW 8.1 mph - N/A   Clear
9:35 PM -5.8 °F -21.2 °F -13.0 °F 71% 30.53 in 10.0 mi WNW 8.1 mph - N/A   Mostly Cloudy
9:55 PM -5.8 °F -22.4 °F -13.0 °F 71% 30.53 in 10.0 mi WNW 9.2 mph - N/A   Mostly Cloudy
10:10 PM -5.8 °F -23.4 °F -13.0 °F 71% 30.53 in 10.0 mi WNW 10.4 mph - N/A   Mostly Cloudy
10:35 PM -5.8 °F -23.4 °F -13.0 °F 71% 30.53 in 10.0 mi West 10.4 mph - N/A   Overcast
10:55 PM -5.8 °F -24.4 °F -13.0 °F 71% 30.53 in 10.0 mi WNW 11.5 mph - N/A   Overcast
11:15 PM -5.8 °F -24.4 °F -14.8 °F 65% 30.53 in 10.0 mi WNW 11.5 mph - N/A   Overcast
11:35 PM -5.8 °F -24.4 °F -13.0 °F 71% 30.52 in 10.0 mi WNW 11.5 mph - N/A   Scattered Clouds
11:55 PM -7.6 °F -25.7 °F -14.8 °F 71% 30.52 in 10.0 mi WNW 10.4 mph - N/A   Clear